Dewpoint
49 42 39 41 43 38 36 36 34 35 35 33 33 34 34 36 39 37 37 37 37 37 39 39 40 42 43 44 44 46 47 47 50 50 49 48 49 54 58 60 61 61 62 63
46 39 40 42 43 42 37 34 34 35 35 34 34 33 34 35 37 38 38 38 37 37 38 38 40 42 42 43 45 45 44 44 46 48 50 51 51 52 56 59 60 60 61 61
38 37 41 41 41 40 38 36 34 33 35 35 32 28 32 34 35 37 38 38 37 37 37 37 39 41 42 42 43 42 41 42 42 43 48 51 53 53 55 59 55 53 55 57
40 40 39 40 39 40 36 40 37 36 34 30 30 18 18 27 31 33 36 36 36 36 36 37 39 40 40 41 41 39 38 37 37 39 46 50 52 52 54 53 50 47 49 49
33 37 38 38 38 41 36 37 37 35 33 30 29 28 23 28 27 28 28 29 30 34 37 36 38 39 40 39 38 37 35 33 32 33 38 47 48 52 50 46 44 41 41 43
34 36 38 37 38 36 35 35 35 34 32 26 28 27 23 23 25 26 29 29 30 30 36 37 38 38 37 36 34 34 33 31 29 29 32 37 44 45 46 44 42 39 39 39
35 36 35 34 35 37 36 32 25 26 25 22 26 28 22 26 28 28 27 27 28 33 37 37 37 36 34 33 32 32 31 29 27 27 28 30 32 36 38 38 38 36 36 36
29 24 35 35 33 33 35 32 27 22 24 22 27 26 26 30 31 31 31 30 32 35 36 36 35 34 33 32 31 29 30 28 25 25 25 26 27 29 30 32 33 34 34 34
29 28 33 36 35 34 35 34 31 26 19 21 23 24 25 27 26 26 30 30 32 34 35 35 34 33 32 31 30 28 29 27 24 23 23 24 25 26 26 27 28 30 31 29
32 25 31 33 36 35 34 35 31 31 23 12 19 21 21 22 24 26 29 31 32 35 35 34 33 32 31 30 30 27 28 27 23 22 22 22 23 24 25 25 26 27 28 28
35 32 31 34 33 32 33 31 32 31 28 20 16 17 22 22 22 25 27 30 32 34 35 34 32 31 30 29 28 27 25 26 23 22 22 23 23 23 23 24 24 25 27 27
35 36 30 31 34 34 33 31 31 29 22 26 25 24 23 22 23 24 27 28 30 33 35 34 32 30 28 27 27 27 24 26 23 22 22 22 21 22 22 22 23 25 25 26
35 34 27 25 32 34 32 32 32 32 30 27 22 22 26 26 27 27 33 33 30 32 34 34 31 28 26 25 26 26 25 24 24 21 22 21 21 20 20 21 22 23 24 25
39 34 30 23 23 33 31 32 31 32 30 27 26 24 25 28 28 28 29 30 31 32 33 33 32 30 28 25 24 24 25 22 23 21 21 20 20 20 20 21 22 22 23 25
39 32 32 31 28 29 31 31 32 31 31 28 26 28 28 30 31 32 33 33 32 32 33 33 33 32 29 26 24 23 24 22 22 20 20 19 20 20 20 21 22 22 23 24
38 33 34 31 31 30 30 29 32 33 31 31 30 29 30 30 31 31 31 33 32 32 32 32 33 33 31 28 25 23 23 22 21 19 19 19 20 20 21 21 21 21 22 23
30 31 32 28 30 30 28 30 28 28 31 31 29 30 30 29 28 28 29 31 31 31 32 32 33 33 33 31 27 24 23 23 21 20 19 19 19 19 20 20 21 21 21 22
28 31 32 27 27 21 25 29 30 30 28 28 29 29 29 28 28 29 29 30 30 30 31 32 32 33 34 33 30 26 23 22 21 20 19 19 19 19 20 19 19 20 21 21
33 33 30 27 24 27 30 29 28 30 29 30 29 29 29 29 30 28 29 29 29 29 30 31 32 33 35 34 31 24 22 21 20 19 19 19 19 19 19 18 19 19 20 20
35 34 31 23 23 16 21 26 26 25 23 23 27 28 28 28 26 25 26 29 29 30 31 31 29 29 29 31 26 22 22 21 20 19 19 19 19 19 18 18 18 19 20 20
30 31 28 29 26 25 25 24 25 17 19 25 23 24 24 24 25 26 28 27 28 29 28 28 25 24 24 23 21 21 21 20 20 20 19 19 18 19 18 19 19 19 20 19
27 28 26 28 26 22 25 24 21 23 26 26 26 26 26 25 26 26 27 27 27 26 26 25 23 22 18 20 20 21 20 20 19 19 18 18 18 18 19 20 20 21 21 20
18 27 25 27 24 25 25 26 26 26 25 26 26 25 25 25 25 26 26 26 25 25 24 22 21 21 19 19 23 24 25 19 18 18 17 18 18 19 20 20 20 20 20 18
20 23 23 20 23 22 23 25 26 27 26 25 24 25 26 26 26 26 25 23 23 23 22 20 17 19 19 18 20 18 17 17 17 17 16 16 17 19 19 19 19 19 18 17
18 21 19 21 19 16 17 19 19 20 23 24 23 22 21 20 20 20 20 20 20 20 19 17 17 17 16 16 15 14 15 15 15 15 15 17 18 18 18 18 18 18 18 18
21 18 16 14 16 16 18 21 23 22 22 19 18 18 18 17 17 17 17 17 17 17 17 16 15 14 11 10 9 10 11 13 14 14 15 15 15 15 15 15 16 20 20 22
Lifted_Index
3 4 4 4 3 3 4 4 5 5 5 5 5 6 6 6 6 6 6 6 6 6 6 6 6 6 5 5 6 6 7 7 7 7 7 7 7 7 6 5 4 3 2 1
3 4 4 4 3 3 4 4 4 5 5 5 5 6 6 6 7 7 6 6 6 6 6 6 6 6 5 5 6 6 7 7 7 7 7 7 7 7 7 5 4 3 2 2
3 4 4 4 4 4 4 4 4 4 4 5 5 5 6 7 7 7 7 7 6 6 5 6 6 6 6 6 6 7 7 7 7 7 8 8 8 7 7 5 4 3 2 2
3 3 4 4 4 4 4 4 4 4 4 5 5 5 5 7 7 7 7 7 7 6 6 6 7 7 7 7 7 7 7 7 7 8 8 8 8 7 6 5 4 3 3 3
4 4 4 4 4 4 4 4 4 4 4 5 5 5 5 6 6 6 7 8 8 8 8 8 8 8 8 7 7 7 7 7 8 9 9 8 7 7 6 6 4 4 4 4
4 4 4 4 3 3 3 4 3 3 3 4 5 5 6 7 7 7 7 7 8 8 8 8 8 8 8 8 8 7 8 8 9 10 10 9 8 7 6 5 5 4 4 5
4 4 4 4 3 3 3 3 2 2 2 3 4 5 6 8 8 8 7 7 8 8 8 8 8 7 7 7 7 7 8 9 10 10 10 9 8 7 6 5 5 5 5 5
3 3 4 4 3 3 2 2 1 1 1 3 4 5 6 8 8 8 7 7 7 7 7 7 7 7 6 6 7 7 8 9 10 10 10 9 9 8 7 6 6 6 6 5
4 4 3 3 3 2 1 1 1 1 1 2 3 5 7 8 8 7 7 7 6 6 6 6 6 6 6 6 6 7 8 9 9 9 9 9 9 9 8 7 7 7 6 6
4 4 3 3 2 2 2 1 1 1 1 1 3 4 6 7 7 7 6 6 6 6 6 6 6 5 5 6 6 7 8 8 9 9 9 9 9 9 9 9 8 8 8 7
3 3 3 3 3 2 2 2 1 1 1 1 2 4 5 6 6 6 6 5 5 5 5 5 5 5 5 5 6 7 7 8 9 9 9 9 9 9 9 9 9 9 10 10
2 3 3 3 3 2 2 2 1 1 2 2 2 4 5 6 5 5 5 5 4 4 5 4 4 4 4 5 6 6 7 7 8 8 9 9 9 9 10 10 11 11 12 13
2 2 3 3 3 2 2 1 1 1 1 2 2 4 5 5 5 4 4 4 4 4 4 4 4 4 4 5 5 6 6 7 7 8 8 8 9 9 10 11 12 13 13 14
1 1 2 2 2 2 1 1 0 0 1 1 2 4 5 5 4 4 4 3 3 3 3 4 4 4 4 5 5 5 6 6 6 7 7 8 8 9 10 12 12 13 13 13
0 0 1 2 2 1 1 1 0 0 1 1 2 3 4 4 4 3 3 3 3 3 3 3 4 4 4 5 5 5 5 5 5 6 6 7 8 9 10 11 12 12 12 12
0 0 1 1 1 1 0 1 0 0 1 1 1 2 3 3 3 3 3 3 3 3 3 3 4 4 4 4 4 4 4 4 4 4 5 5 6 7 8 9 10 11 11 12
1 1 1 1 1 0 0 1 1 1 1 0 0 1 2 2 2 2 2 2 3 3 3 3 4 4 4 4 4 4 4 3 3 3 4 4 5 6 7 8 9 10 10 11
2 2 1 1 0 1 1 1 1 1 1 0 0 0 1 1 2 2 2 3 3 3 3 4 4 4 4 4 3 3 3 3 3 3 2 3 3 4 5 6 8 9 9 10
3 2 1 0 0 1 1 1 1 0 0 0 0 1 1 1 2 2 3 3 3 3 3 3 3 3 3 3 3 2 2 2 2 2 2 2 2 3 4 5 7 9 9 10
2 2 1 0 0 0 1 1 1 1 1 1 1 1 2 2 2 3 3 3 4 3 3 3 3 3 3 3 3 2 2 2 1 1 1 2 2 3 4 6 7 9 10 10
1 1 0 -0 -0 0 1 1 1 1 1 2 2 2 3 3 3 3 3 3 3 3 3 3 4 3 3 3 3 2 2 1 1 1 1 2 3 4 6 7 9 10 10 10
0 0 0 -0 -0 0 1 1 1 2 2 2 3 3 3 3 3 3 3 3 4 4 4 4 4 4 4 3 3 2 2 1 1 1 2 2 4 5 7 8 9 10 10 10
1 1 1 1 1 1 2 2 2 2 3 4 4 4 4 4 4 4 4 4 4 4 4 3 3 3 3 3 3 3 2 2 2 2 2 3 4 6 7 8 9 10 11 11
2 2 2 2 2 3 3 3 3 4 4 5 6 6 5 5 5 5 5 5 5 5 4 3 2 2 2 2 3 3 3 3 2 2 3 3 5 6 8 9 10 12 13 13
3 3 3 3 4 4 4 4 5 5 6 6 6 6 6 5 5 5 5 5 5 4 3 2 2 2 2 2 2 3 3 3 3 3 3 4 5 7 8 10 12 14 15 16
3 4 4 4 4 4 5 5 5 6 6 6 6 6 5 5 5 5 5 5 5 4 3 2 2 2 2 2 2 3 4 4 4 3 4 5 6 7 8 10 12 15 17 18